NUVIEW ALPHA

Last updated on Sun Apr 12 2026 00:02:57 GMT+0000 (Coordinated Universal Time)

1 62455U 24252B 26101.50422398 -.00000214 00000+0 00000+0 0 9996 2 62455 0.0603 37.8805 0001635 342.1566 278.0949 1.00272283 3159
UTC large
Height (km)
Speed (km/s)
/
Latitude / Longitude
Inclination (degrees)
Orbital Period (minutes)
Azimuth
Elevation
Range (km)
Doppler Factor

Next 0 passes for location: London (51.5072 / 0.1276)

Sorry there are no passes over London.
NUVIEW ALPHA